Flag for Indonesia Weather past 2 weeks in Medan, North Sumatra, Indonesia

Now
81 °F

Passing clouds.


Feels Like: 89 °F
Forecast: 78 / 90 °F
Wind: 3 mph from Southwest

Location: Medan / Polonia

Current Time: May 7, 2015 at 12:35:22 AM

Latest Report: May 7, 2015 at 12:00 AM


Visibility: 3 mi

Pressure: 29.80 "Hg

Humidity: 100%

Dew point: 81 °F

Location of MedanLocation

Historic Weather in Medan — Graph

°F

Medan temperature yesterday

Maximum temperature yesterday: 93 °F (at 2:00 PM)
Minimum temperature yesterday: 75 °F (at 12:30 AM)
Average temperature yesterday: 83 °F

Past Weeks' High & Low Weather Summary

 TemperatureHumidityPressure
High93 °F (May 5, 12:00 PM)100% (Apr 22, 6:30 AM)29.92 "Hg (Apr 22, 6:30 AM)
Low73 °F (Apr 22, 7:00 AM)46% (Apr 22, 2:00 PM)29.68 "Hg (May 6, 4:30 PM)
Average82 °F87%29.82 "Hg
* Reported Apr 21 11:00 PM — May 6 11:00 PM, Medan, Weather by CustomWeather, © 2015

Note: Actual official high and low records may vary slightly from our data, if they occured in-between our weather recording intervals... More about our weather records

Advertising

Medan weather history for previous 24 hours

 ConditionsComfort  
Time TempWeatherWind HumidityBarometerVisibility
11:00 PM
Wed, May 6
82 °FPassing clouds.5 mph94%29.80 "Hg4 mi
10:30 PM82 °FPartly cloudy.7 mph94%29.80 "Hg3 mi
10:00 PM82 °FPassing clouds.No wind94%29.77 "Hg4 mi
9:30 PM82 °FPassing clouds.No wind94%29.77 "HgN/A
9:00 PM82 °FPassing clouds.5 mph94%29.77 "Hg6 mi
8:30 PM82 °FPassing clouds.3 mph94%29.74 "Hg4 mi
8:00 PM82 °FPassing clouds.3 mph94%29.74 "HgN/A
7:00 PM84 °FPassing clouds.6 mph89%29.71 "Hg2 mi
6:30 PM84 °FPassing clouds.6 mph89%29.71 "Hg4 mi
6:00 PM86 °FScattered clouds.9 mph84%29.68 "Hg4 mi
5:30 PM88 °FScattered clouds.9 mph79%29.68 "Hg4 mi
5:00 PM90 °FScattered clouds.7 mph71%29.68 "Hg5 mi
4:30 PM90 °FScattered clouds.8 mph71%29.68 "Hg5 mi
4:00 PM91 °FScattered clouds.7 mph67%29.71 "Hg5 mi
3:30 PM90 °FScattered clouds.9 mph71%29.71 "Hg5 mi
3:00 PM91 °FScattered clouds.8 mph67%29.71 "Hg5 mi
2:30 PM91 °FScattered clouds.9 mph71%29.74 "Hg5 mi
2:00 PM93 °FScattered clouds.8 mph59%29.74 "Hg5 mi
1:30 PM91 °FScattered clouds.12 mph67%29.77 "Hg5 mi
1:00 PM88 °FScattered clouds.9 mph75%29.80 "Hg5 mi
12:30 PM90 °FScattered clouds.10 mph71%29.80 "Hg5 mi
12:00 PM90 °FScattered clouds.7 mph63%29.80 "Hg5 mi
11:30 AM90 °FScattered clouds.7 mph67%29.83 "Hg5 mi
11:00 AM91 °FScattered clouds.6 mph67%29.83 "Hg5 mi
10:30 AM90 °FScattered clouds.No wind67%29.83 "Hg5 mi
10:00 AM86 °FScattered clouds.3 mph79%29.83 "Hg4 mi
9:30 AM84 °FScattered clouds.No wind79%29.83 "Hg4 mi
9:00 AM81 °FScattered clouds.No wind94%29.83 "Hg4 mi
8:30 AM81 °FScattered clouds.3 mph94%29.80 "Hg3 mi
8:00 AM79 °FScattered clouds.2 mph94%29.80 "Hg4 mi
7:00 AM77 °FScattered clouds.7 mph100%29.80 "Hg2 mi
6:30 AM77 °FScattered clouds.3 mph100%29.77 "Hg3 mi
6:00 AM77 °FPassing clouds.3 mph100%29.77 "Hg3 mi
5:30 AM77 °FPassing clouds.3 mph100%29.77 "Hg3 mi
5:00 AM77 °FPassing clouds.5 mph100%29.77 "Hg4 mi
4:30 AM77 °FPassing clouds.6 mph100%29.77 "Hg4 mi
4:00 AM75 °FPassing clouds.5 mph100%29.77 "Hg4 mi
3:30 AM77 °FPassing clouds.3 mph100%29.77 "Hg4 mi
3:00 AM75 °FPassing clouds.7 mph100%29.77 "Hg4 mi
2:30 AM75 °FPassing clouds.6 mph100%29.80 "Hg4 mi
2:00 AM75 °FPassing clouds.7 mph100%29.80 "Hg4 mi
1:30 AM75 °FPassing clouds.9 mph100%29.80 "Hg4 mi
1:00 AM75 °FPassing clouds.8 mph100%29.83 "Hg4 mi
12:30 AM75 °FThunderstorms. Passing clouds.7 mph100%29.83 "Hg4 mi
12:00 AM77 °FThunderstorms. Passing clouds.8 mph100%29.83 "Hg3 mi
Weather by CustomWeather, © 2015

See weather overviewHow to use our weather pages